Regional Weather Roundup
Issued by NWS Sterling, VA

Home | Current Version | Previous Version | Text Only | Print | Product List | Glossary Off
Versions: 1 2 3 4 5 6 7 8 9 10 11 12 13 14 15 16 17 18 19 20 21 22 23 24 25 26 27 28 29 30 31 32 33 34 35 36 37 38 39 40 41 42 43 44 45 46 47 48 49 50

000
ASUS41 KLWX 212211
RWRLWX

REGIONAL WEATHER ROUNDUP
NATIONAL WEATHER SERVICE BALTIMORE MD/WASHINGTON DC
600 PM EDT SAT OCT 21 2017

Note: "FAIR" indicates few or no clouds below 12,000 feet
with no significant weather and/or obstructions to visibility.
 TC=TEMPERATURE CELSIUS

 * =Non NWS site. Station does not report precipitation (e.g. rain,
    snow, etc.), thunder, or fog.

DCZ001-MDZ009-015-VAZ040>042-051-053>054-212300-
WASHINGTON METRO

CITY           SKY/WX    TMP DP  RH WIND       PRES   REMARKS
WASHINGTON NAT CLOUDY    71  52  50 SE3       30.33R
DULLES         CLOUDY    70  41  34 SE3       30.33R
ANDREWS AFB    CLOUDY    67  45  44 E6        30.32R
FT BELVOIR     CLOUDY    65  55  70 CALM      30.32S
QUANTICO       CLOUDY    70  53  54 CALM      30.33S
COLLEGE PARK*  PTCLDY    68  49  51 E3        30.33R
LEESBURG*      CLOUDY    73  45  35 SE6       30.33S
MANASSAS*      CLOUDY    68  48  48 SE5       30.33R
GAITHERSBURG*  CLOUDY    66  46  48 CALM      30.34R

$$

MDZ006>007-011-014-212300-
BALTIMORE METRO

CITY           SKY/WX    TMP DP  RH WIND       PRES   REMARKS
BWI AIRPORT    CLOUDY    67  51  56 SE3       30.33R
MD SCIENCE CTR   N/A     72  37  28 MISG      30.33S
MARTIN STATE   MOCLDY    66  48  52 CALM      30.34R
ANNAPOLIS      CLOUDY    68  54  60 CALM      30.33R
FORT MEADE*    CLOUDY    63  52  67 E3        30.35S

$$

MDZ012-015-019>023-212300-
MARYLAND EASTERN SHORE

CITY           SKY/WX    TMP DP  RH WIND       PRES   REMARKS
OCEAN CITY     CLOUDY    66  58  75 CALM      30.35R
SALISBURY      CLEAR     66  54  65 SE6       30.34R
CAMBRIDGE*     CLEAR     68  46  45 W3        30.33R
EASTON*        MOCLDY    70  50  49 CALM      30.37R

$$

MDZ017>025-212300-
SOUTHERN MARYLAND

CITY           SKY/WX    TMP DP  RH WIND       PRES   REMARKS
PATUXENT RIVER MOCLDY    67  48  50 SE3       30.33R
ST INIGOES     CLEAR     64  51  62 CALM      30.33R
LEONARDTOWN*   NOT AVBL

$$

MDZ003>005-212300-
NORTH CENTRAL MARYLAND

CITY           SKY/WX    TMP DP  RH WIND       PRES   REMARKS
FREDERICK*     CLEAR     72  45  37 CALM      30.35R
HAGERSTOWN APT PTCLDY    72  42  34 SE5       30.32S
WESTMINSTER*   PTCLDY    72  43  35 SE3       30.34R

$$

MDZ501>502-212300-
WESTERN MARYLAND

CITY           SKY/WX    TMP DP  RH WIND       PRES   REMARKS
OAKLAND*       CLOUDY    61  46  59 SE9       30.33R
CUMBERLAND*    CLOUDY    72  46  40 SE3       30.34R

$$

VAZ025>031-212300-
SHENANDOAH VALLEY

CITY           SKY/WX    TMP DP  RH WIND       PRES   REMARKS
WINCHESTER*    PTCLDY    68  50  52 E3        30.32R
FRONT ROYAL*   PTCLDY    70  50  49 CALM      30.30S
LURAY*         MOCLDY    72  52  49 CALM      30.31R
NEW MARKET*    PTCLDY    72  48  42 S5        30.30S
STAUNTON*      PTCLDY    70  51  51 S6        30.35R
WAYNESBORO*    PTCLDY    68  52  56 SE5       30.34R

$$

WVZ021-048>050-054>055-212300-
EASTERN WEST VIRGINIA PANHANDLE

CITY           SKY/WX    TMP DP  RH WIND       PRES   REMARKS
MARTINSBURG    CLOUDY    70  45  40 E3        30.31S
PETERSBURG*    CLOUDY    71  52  50 CALM      30.29S

$$

VAZ036>039-050-212300-
CENTRAL FOOTHILLS

CITY           SKY/WX    TMP DP  RH WIND       PRES   REMARKS
CHARLOTTESVILL PTCLDY    73  52  47 S5        30.32R
CULPEPER*      CLOUDY    71  47  42 CALM      30.32S
ORANGE*        CLOUDY    70  54  56 CALM      30.32R
GORDONSVILLE*  CLOUDY    70  55  59 CALM      30.32R
WARRENTON*     CLOUDY    70  39  32 E5        30.32R

$$

VAZ055>057-212300-
NORTH AND CENTRAL PIEDMONT

CITY           SKY/WX    TMP DP  RH WIND       PRES   REMARKS
FREDERICKSBRG* CLOUDY    71  47  42 CALM      30.32R
STAFFORD*      CLOUDY    65  56  72 CALM      30.37R

$$

NCZ024-NYZ072-PAZ021-071-VAZ022-071-212300-
OTHER REGIONAL OBSERVATIONS

CITY           SKY/WX    TMP DP  RH WIND       PRES   REMARKS
NEW YORK CITY  CLOUDY    70  39  32 CALM      30.34R
PHILADELPHIA   CLOUDY    72  47  40 SW7       30.33R
PITTSBURGH     CLOUDY    71  54  54 SE5       30.25F
ROANOKE        MOCLDY    72  53  51 SE8       30.34R
RICHMOND       CLOUDY    71  52  50 E5        30.32R
RALEIGH        CLOUDY    73  54  51 SE3       30.32R

$$

ANZ530>537-212300-
MARINE OBSERVATIONS

STATION/POSITION TIME  TEMP    WIND        PRES
                       AIR SEA DIR/SP/G
                 (UTC) (F)     (DEG/KT/KT) (MB)
THOMAS PT LIGHT  2200   69 67  210/  1/  2   N/A
BALT KEY BRIDGE  2136   70     150/  3/  3 1027.0R
COVE POINT       2136   70     160/  2/  2 1027.8R
LEWISETTA        2136   68 67  140/  4/  4 1027.1R
SOLOMONS ISLAND  2136   69 70   90/  4/  4 1026.8R
PINEY POINT      2136          150/  6/  7   N/A

$$




USA.gov is the U.S. government's official web portal to all federal, state and local government web resources and services.